Regional Weather Roundup
Issued by NWS Austin/San Antonio, TX

Home | Current Version | Previous Version | Text Only | Print | Product List | Glossary On
Versions: 1 2 3 4 5 6 7 8 9 10 11 12 13 14 15 16 17 18 19 20 21 22 23 24 25 26 27 28 29 30 31 32 33 34 35 36 37 38 39 40 41 42 43 44 45 46 47 48 49 50
000
ASUS44 KEWX 191910
RWREWX
SOUTH TEXAS REGIONAL WEATHER ROUNDUP
NATIONAL WEATHER SERVICE AUSTIN/SAN ANTONIO TX
100 PM CST MON FEB 19 2018

NOTE: "FAIR" INDICATED FEW OR NO CLOUDS BELOW 12,000 FEET WITH NO
SIGNIFICANT WEATHER AND/OR OBSTRUCTIONS TO VISIBILITY.

* - THESE STATIONS ARE NOT NWS OR FAA STATIONS...AND ARE NOT SUBJECT
    TO NWS AND FAA QUALITY CONTROL.

TXZ171-172-183>190-192000-
TEXAS HILL COUNTRY AND EDWARDS PLATEAU

CITY           SKY/WX    TMP DP  RH WIND       PRES   REMARKS
JUNCTION       PTSUNNY   73  62  68 S20G28    29.84F
*LLANO           N/A     75  61  60 S14G23    29.88
BURNET         CLOUDY    74  60  61 S17G32    29.88F
*HORSESHOE BAY CLOUDY    78  60  54 S16G30    29.85F
*KERRVILLE     CLOUDY    72  63  73 S17G23    29.88F
*FREDERICKSBRG CLOUDY    71  58  64 S17G26    29.88F
*ROCKSPRINGS   CLOUDY    68  63  83 S17G24    29.91F
*BOERNE STAGE  CLOUDY    70  61  73 S15G28    29.90F
*CASTROVILLE   PTSUNNY   75  60  59 S13G18    29.88F
HONDO          CLOUDY    78  62  57 S18       29.87F
*UVALDE        CLOUDY    75  62  65 SE14      29.86F
DEL RIO        CLOUDY    75  65  70 SE13      29.80F
LAUGHLIN AFB   NOT AVBL
CARRIZO SPRGS  CLOUDY    79  63  57 S12G20    29.82F
*EAGLE PASS    CLEAR     82  64  54 SE13      29.81F
*FAITH RANCH   SUNNY     81  64  57 SE14      29.82F
$$

TXZ173-191>194-202-209-217>225-228-192000-
CENTRAL AND SOUTH CENTRAL TEXAS

CITY           SKY/WX    TMP DP  RH WIND       PRES   REMARKS
GEORGETOWN     CLOUDY    77  62  59 S16G28    29.88F
AUSTIN/BERGSTM CLOUDY    80  66  62 S22G33    29.86F
AUSTIN/MABRY   CLOUDY    80  62  54 S16G28    29.87F
*AUSTIN/EXEC   CLOUDY    79  63  57 S28G36    29.88F
*LAGO VISTA    CLOUDY    77  62  59 S17G31    29.88F
SAN MARCOS     CLOUDY    80  63  55 S25G32    29.88F
NEW BRAUNFELS  PTSUNNY   80  62  54 S24G35    29.87F
RANDOLPH AFB   CLOUDY    77  64  63 S18       29.88F
PT SAN ANTONIO CLOUDY    76  63  63 SE16      29.86F
SAN ANTONIO    PTSUNNY   76  62  62 S15G23    29.88F
STINSON FIELD  CLOUDY    79  64  60 S13G25    29.85F
*LA GRANGE     CLOUDY    78  69  72 S15G23    29.90F
*GIDDINGS      CLOUDY    76  64  66 S13G28    29.92F
*GONZALES      CLOUDY    80  67  65 S23G31    29.89F
$$

TXZ163>164-176>182-195>201-210>213-226-227-235-192000-
SOUTHEAST TEXAS

CITY           SKY/WX    TMP DP  RH WIND       PRES   REMARKS
COLLEGE STN    CLOUDY    78  64  61 S21G36    29.92F
*BRYAN         CLOUDY    78  63  60 S15G29    29.93F
*CALDWELL      CLOUDY    77  65  65 S21       29.91F
*CROCKETT      CLOUDY    77  63  61 S17G29    29.97F
*BRENHAM       CLOUDY    78  66  66 S22G28    29.93F
HUNTSVILLE     FAIR      80  62  54 S14G30    29.94F
CONROE         PTSUNNY   79  64  60 S18G35    29.96F
HOUSTON BUSH   PTSUNNY   80  64  58 SE20G30   29.97F
HOUSTON HOBBY  PTSUNNY   77  67  71 SE20G29   29.98F
*HOUSTON SW AP PTSUNNY   79  66  64 S15G23    29.98F
PEARLAND       PTSUNNY   76  67  73 S16G26    30.00F
HOUSTON HOOKS  PTSUNNY   81  64  56 S14G25    29.96F
ELLINGTON FLD  NOT AVBL
SUGAR LAND     PTSUNNY   82  65  56 S22G30    29.96F
*HOUSTON EXEC  PTSUNNY   79  64  61 S17G30    29.96F
*CLEVELAND MUN PTSUNNY   78  62  56 S14G23    30.00F
*WHARTON       FAIR      78  64  61 SE17G26   29.96F
*COLUMBUS      CLOUDY    76  65  68 S17G26    29.94F
*EAGLE LAKE    CLOUDY    78  67  68 S24G33    29.94F
$$

TXZ214>216-236>238-192000-
THE UPPER TEXAS COAST

CITY           SKY/WX    TMP DP  RH WIND       PRES   REMARKS
*ORANGE        FAIR      77  67  72 S20G28    30.07F
PORT ARTHUR    FAIR      78  63  59 S20G30    30.03F
GALVESTON      FAIR      76  67  73 SE20      30.01F
ANGLETON       CLOUDY    78  66  66 S24G31    29.98F
*BAY CITY      CLOUDY    78  67  69 S23G30    29.97F
PALACIOS       CLOUDY    77  70  79 SE23G30   29.95F
$$

TXZ229>234-239>247-192000-
TEXAS COASTAL BEND AND RIO GRANDE PLAINS

CITY           SKY/WX    TMP DP  RH WIND       PRES   REMARKS
VICTORIA       CLOUDY    78  64  61 S30G41    29.92F
*BEEVILLE      CLOUDY    78  68  72 SE22G33   29.88F
ROCKPORT       CLOUDY    74  68  81 SE18G24   29.91F HAZE
*PORT ARANSAS  NOT AVBL
*PORT LAVACA   CLOUDY    76  67  73 SE24G32   29.94F
*INGLESIDE     PTSUNNY   77  69  75 MISG      29.89F
CORPUS CHRISTI PTSUNNY   79  68  69 S35G46    29.88F
CORPUS NAS     PTSUNNY   78  69  73 SE28G35   29.89F
*ROBSTOWN      PTSUNNY   80  68  67 S31G44    29.88F
ALICE          PTSUNNY   85  67  54 SE23G31   29.84F
KINGSVILLE NAS PTSUNNY   81  69  67 SE26G38   29.85F
COTULLA        LGT RAIN  78  64  61 S10G16    29.83F
LAREDO         CLOUDY    84  63  49 S15       29.83F
$$

TXZ248>255-192000-
DEEP SOUTH TEXAS

CITY           SKY/WX    TMP DP  RH WIND       PRES   REMARKS
BROWNSVILLE    PTSUNNY   84  69  60 SE32G43   29.90F
PORT ISABEL    PTSUNNY   84  68  58 SE25G35   29.88F
*SOUTH PADRE   NOT AVBL
HARLINGEN      PTSUNNY   83  69  62 S26G40    29.87F
*HEBBRONVILLE  PTSUNNY   84  61  45 S18G29    29.84F
MCALLEN        PTSUNNY   86  68  54 SE25G38   29.85F
*WESLACO       NOT AVBL
FALFURRIAS     PTSUNNY   85  65  50 SE24G38   29.84F
EDINBURG       PTSUNNY   87  66  49 S22G37    29.85F
*ZAPATA        FAIR      86  59  40 S13G21    29.81F
$$

TXZ213>215-236>238-242>244-246-247-251-254-255-192000-
CMAN STATIONS

STATION/POSITION TIME  TEMP    WIND        PRES    WAVE
                       AIR SEA DIR/SP/G            HT/PER
                 (UTC) (F)     (DEG/KT/KT) (MB)    (FT/S)
SABINE PASS      1842   68 68  140/ 12/ 15 1019.2
SEA RIM ST PARK  1900   70     140/  9/ 12 1017.5
NORTH JETTY/GLS  1842      62  130/ 11/ 12 1016.1
EAGLE POINT      1842   69 67  160/ 12/ 16 1016.3
MORGANS POINT    1842   71 63  140/ 11/ 16 1016.3
PORT O`CONNOR    1842   68 62  140/ 17/ 19 1013.7
MALAQUITE BEACH  1842   84 63  130/ 15/ 17 1012.4
BAFFIN BAY       1842   71 72  130/ 21/ 26 1012.4
PORT ISABEL      1836   73 64  150/ 18/ 25 1012.7
$$



USA.gov is the U.S. government's official web portal to all federal, state and local government web resources and services.